Location: Unspecified
(0.0000°N, 0.0000°E)
Time: 12:36:12
(UTC+00:00)

Envisat - Pass Details

Date: 28 May 2019
Orbit: 764 x 766 km, 98.1° (Epoch: 25 June)

Event Time Altitude Azimuth Distance (km) Brightness Sun altitude
Rises 18:38:35 0° 162° (SSE) 3,231 5.9 -9.6°
Reaches altitude 10° 18:40:55 10° 158° (SSE) 2,303 5.1 -10.1°
Maximum altitude 18:45:55 61° 78° (ENE) 865 3.0 -11.3°
Drops below altitude 10° 18:50:54 10° 358° (N) 2,293 5.8 -12.4°
Sets 18:53:13 0° 355° (N) 3,216 6.6 -13.0°
